Regional Weather Roundup
Issued by NWS Kansas City/Pleasant Hill, MO

Home | Current Version | Previous Version | Text Only | Print | Product List | Glossary On
Versions: 1 2 3 4 5 6 7 8 9 10 11 12 13 14 15 16 17 18 19 20 21 22 23 24 25 26 27 28 29 30 31 32 33 34 35 36 37 38 39 40 41 42 43 44 45 46 47 48 49 50
000
ASUS43 KEAX 272110
RWREAX

WEATHER ROUNDUP FOR EASTERN KANSAS AND NORTHWEST MISSOURI
NATIONAL WEATHER SERVICE KANSAS CITY/PLEASANT HILL MO
400 PM CDT MON JUL 27 2015

KSZ040-057-103>105-MOZ028-029-037-043-272200-
...KANSAS CITY METROPOLITAN AREA...

CITY           SKY/WX    TMP DP  RH WIND       PRES   REMARKS
K.C. INTL      CLOUDY    90  77  65 S13       29.89F HX 103
K.C. DOWNTOWN  PTSUNNY   92  76  59 S8        29.87F HX 104
LEES SUMMIT    CLOUDY    90  75  61 S7        29.90F HX 100
OLATHE - IXD   MOSUNNY   94  74  52 S10       29.90F HX 104
OLATHE - OJC   MOSUNNY   91  76  61 S13G18    29.89F HX 103
LAWRENCE       MOSUNNY   92  78  63 S7        29.87F HX 107

$$

MOZ001>008-011>017-020>025-030>033-038>040-044>046-053-054-272200-
...NORTHERN AND CENTRAL MISSOURI...

CITY           SKY/WX    TMP DP  RH WIND       PRES   REMARKS
ST. JOSEPH     PTSUNNY   89  78  70 S10       29.87F HX 103
MOSBY          CLOUDY    88  73  62 S5        29.88F HX  96
WARRENSBURG    PTSUNNY   91  73  55 S6        29.90S HX 100
WHITEMAN AFB   PTSUNNY   96  74  49 SW12      29.90F HX 106
CLINTON          N/A     95  75  52 CALM      29.91F HX 107
SEDALIA        SUNNY     95  73  48 SW8       29.92F HX 104
WARSAW         NOT AVBL
CHILLICOTHE      N/A     91  78  65 S8        29.89F HX 106
KIRKSVILLE     TSTM      83  79  88 SE15      29.91F FOG     HX  94

$$

MOZ041-047>049-056>058-063>065-088>090-097-272200-
...EASTERN AND SOUTHERN MISSOURI...

CITY           SKY/WX    TMP DP  RH WIND       PRES   REMARKS
ST. LOUIS INTL PTSUNNY   93  77  59 NE8       29.90F HX 107
SPIRIT OF STL  PTSUNNY   90  81  74 CALM      29.88F HX 109
COLUMBIA       MOSUNNY   91  76  61 S9        29.92F HX 103
JEFFERSON CITY MOSUNNY   93  72  50 S6        29.89F HX 101
ROLLA          SUNNY     92  74  55 W8        29.92F HX 101
OSAGE BEACH    SUNNY     93  73  52 CALM      29.92F HX 102
SPRINGFIELD    MOSUNNY   92  73  53 W3        29.95S HX 100
BRANSON        PTSUNNY   93  73  52 S3        29.97F HX 102
JOPLIN         MOSUNNY   95  71  45 S10       29.93S HX 102
WEST PLAINS    MOSUNNY   93  74  53 SE6       29.97F HX 103

$$

IAZ060-094-KSZ022-034>040-054-083-096-NEZ052-066-093-272200-
...KANSAS...SOUTHEAST NEBRASKA AND IOWA...

CITY           SKY/WX    TMP DP  RH WIND       PRES   REMARKS
TOPEKA         PTSUNNY   94  75  54 S10G17    29.86F HX 105
MANHATTAN      MOSUNNY   94  79  61 E9        29.84F HX 111
EMPORIA        SUNNY     97  65  34 S17       29.88F HX  99
CHANUTE        SUNNY     95  73  48 S14G21    29.91F HX 104
WICHITA        MOSUNNY   96  63  33 S18G26    29.87F HX  97
OMAHA          MOSUNNY   90  71  53 SE16      29.86F HX  96
LINCOLN        SUNNY     91  72  53 S17       29.86F HX  98
FALLS CITY     MOSUNNY   89  79  72 S10       29.86F HX 104
LAMONI         CLOUDY    75  70  84 NE18      29.96R
DES MOINES     TSTM      74  68  81 S12       29.97R

$$



USA.gov is the U.S. government's official web portal to all federal, state and local government web resources and services.